Content
SEND FEEDBACK

Daily
Averages
Monthly
Summary
Austria

INNSBRUCK, AUSTRIA


Home > Europe > Austria
Elevation: 1994 feet     Latitude: 47 15N     Longitude: 011 20E

WEATHER
 
SELECT A DAY
Number of Records: 320,475;   Date Range: 7/1/96 - 12/17/14
 
SHARE

PRINT THIS DATA

[ ← Previous Day ]
WEATHER ALMANAC - JULY 11, 2013
[ Next Day → ]
[ °C ]   °F
Weather ElementAverageHighLow
Temperature68 °F77 °F (1:20 pm)57.2 °F (5:20 am)
Dewpoint54.4 °F59 °F (12:20 pm)50 °F (9:20 pm)
Humidity62.4 %94 % (5:50 am)33 % (2:00 pm)
Barometer30.00 in30.09 in (10:50 pm)29.88 in (2:00 pm)
Wind Speed6.4 mph16.1 mph (3:20 pm)
Wind Gust27.6 mph (6:50 pm)
Weather ElementAverage
Visibility7.5 mi
Wind DirectionENE (78.7 °)

Weather ElementTotal
Precipitation---
Cooling Degree Days2.1 (Base 65)
Growing Degree Days17.1 (Base 50)
Averaged from 55 records on July 11, 2013
WEATHER CONDITIONS BREAKOUT
WIND DIRECTION BREAKOUT
WEATHER BY HOUR - JULY 11, 2013
[ °C ]   °F
Local TimeTemperatureDewpointHumidityBarometerVisibilityWind DirectionWind SpeedGust SpeedPrecipitationEventsConditions
12:50 AM64.4 °F57.2 °F77 %30.01 in6.2 miVariable1.2 mphMostly Cloudy
1:20 AM64.4 °F57.2 °F77 %30.01 in6.2 miWest (280°)2.3 mphOvercast
1:50 AM64.4 °F57.2 °F77 %30.01 in6.2 miCalmPartly Cloudy
2:00 AM64.0 °F57.0 °F71 %29.97 in19.0 miCalm
2:20 AM62.6 °F55.4 °F77 %30.01 in6.2 miVariable2.3 mphPartly Cloudy
2:50 AM60.8 °F55.4 °F82 %30.01 in6.2 miVariable1.2 mphPartly Cloudy
3:20 AM59.0 °F55.4 °F88 %30.01 in6.2 miWest (280°)3.5 mphPartly Cloudy
3:50 AM59.0 °F53.6 °F82 %30.01 in6.2 miVariable1.2 mphPartly Cloudy
4:20 AM59.0 °F55.4 °F88 %30.01 in6.2 miVariable1.2 mphScattered Clouds
4:50 AM59.0 °F55.4 °F88 %30.01 in6.2 miVariable1.2 mphScattered Clouds
5:00 AM58.0 °F54.0 °F84 %29.99 in16.0 mi°2.2 mphScattered Clouds
5:20 AM57.2 °F53.6 °F88 %30.01 in6.2 miVariable1.2 mphPartly Cloudy
5:50 AM57.2 °F55.4 °F94 %30.01 in6.2 miVariable2.3 mphPartly Cloudy
6:20 AM57.2 °F53.6 °F88 %30.01 in6.2 miWest (270°)2.3 mphPartly Cloudy
6:50 AM59.0 °F55.4 °F88 %30.01 in6.2 miWest (260°)3.5 mphPartly Cloudy
7:20 AM60.8 °F55.4 °F82 %30.01 in6.2 miWSW (250°)3.5 mphScattered Clouds
7:50 AM62.6 °F55.4 °F77 %30.01 in6.2 miWest (260°)2.3 mphPartly Cloudy
8:00 AM62.0 °F56.0 °F73 %29.99 in12.0 miWest (260°)2.2 mphScattered Clouds
8:20 AM64.4 °F57.2 °F77 %30.01 in6.2 miVariable1.2 mphPartly Cloudy
8:50 AM68.0 °F55.4 °F64 %30.01 in6.2 miVariable1.2 mphPartly Cloudy
9:20 AM69.8 °F57.2 °F64 %30.01 in6.2 miVariable1.2 mphPartly Cloudy
9:50 AM69.8 °F55.4 °F60 %30.01 in6.2 miVariable1.2 mphPartly Cloudy
10:20 AM69.8 °F55.4 °F60 %30.01 in6.2 miEast (80°)4.6 mphScattered Clouds
10:50 AM69.8 °F57.2 °F64 %29.98 in6.2 miEast (80°)4.6 mphScattered Clouds
11:00 AM70.0 °F57.0 °F53 %29.93 in12.0 miEast (80°)4.5 mphScattered Clouds
11:20 AM73.4 °F57.2 °F57 %29.98 in6.2 miVariable5.8 mphScattered Clouds
11:50 AM73.4 °F57.2 °F57 %29.98 in6.2 miVariable5.8 mphPartly Cloudy
12:20 PM75.2 °F59.0 °F57 %29.98 in6.2 miEast (90°)6.9 mphPartly Cloudy
12:50 PM75.2 °F59.0 °F57 %29.98 in6.2 miESE (110°)5.8 mphScattered Clouds
1:20 PM77.0 °F57.2 °F50 %29.95 in6.2 miEast (100°)6.9 mphScattered Clouds
1:50 PM77.0 °F53.6 °F44 %29.95 in6.2 miEast (90°)8.1 mphPartly Cloudy
2:00 PM77.0 °F54.0 °F33 %29.88 in16.0 miEast (80°)13.4 mphScattered Clouds
2:20 PM77.0 °F55.4 °F47 %29.95 in6.2 miEast (100°)9.2 mphPartly Cloudy
2:50 PM77.0 °F53.6 °F44 %29.95 in6.2 miEast (80°)11.5 mphPartly Cloudy
3:20 PM77.0 °F53.6 °F44 %29.95 in6.2 miENE (70°)16.1 mphPartly Cloudy
3:50 PM77.0 °F53.6 °F44 %29.95 in6.2 miENE (70°)15.0 mphPartly Cloudy
4:20 PM77.0 °F53.6 °F44 %29.95 in6.2 miENE (70°)15.0 mphPartly Cloudy
4:50 PM77.0 °F53.6 °F44 %29.95 in6.2 miEast (80°)13.8 mphPartly Cloudy
5:00 PM77.0 °F54.0 °F33 %29.88 in16.0 miEast (80°)13.4 mphScattered Clouds
5:20 PM75.2 °F53.6 °F47 %29.98 in6.2 miENE (70°)16.1 mphPartly Cloudy
5:50 PM75.2 °F51.8 °F44 %29.98 in6.2 miENE (70°)16.1 mphScattered Clouds
6:20 PM73.4 °F53.6 °F50 %29.98 in6.2 miEast (80°)16.1 mphScattered Clouds
6:50 PM73.4 °F51.8 °F47 %29.98 in6.2 miEast (90°)15.0 mph27.6 mphScattered Clouds
7:20 PM71.6 °F51.8 °F50 %30.01 in6.2 miEast (80°)12.7 mphMostly Cloudy
7:50 PM69.8 °F51.8 °F53 %30.01 in6.2 miENE (70°)13.8 mphMostly Cloudy
8:00 PM70.0 °F51.0 °F40 %29.96 in16.0 miENE (70°)13.4 mphScattered Clouds
8:20 PM69.8 °F51.8 °F53 %30.04 in6.2 miEast (90°)10.4 mphMostly Cloudy
8:50 PM68.0 °F51.8 °F56 %30.04 in6.2 miEast (100°)9.2 mphScattered Clouds
9:20 PM66.2 °F50.0 °F56 %30.06 in6.2 miENE (60°)8.1 mphMostly Cloudy
9:50 PM66.2 °F50.0 °F56 %30.06 in6.2 miENE (70°)8.1 mphMostly Cloudy
10:20 PM66.2 °F50.0 °F56 %30.06 in6.2 miESE (120°)3.5 mphScattered Clouds
10:50 PM64.4 °F50.0 °F59 %30.09 in6.2 miVariable2.3 mphScattered Clouds
11:00 PM64.0 °F50.0 °F51 %30.05 in16.0 mi°2.2 mphScattered Clouds
11:20 PM62.6 °F51.8 °F68 %30.09 in6.2 miVariable2.3 mphScattered Clouds
11:50 PM62.6 °F51.8 °F68 %30.09 in6.2 miVariable2.3 mphPartly Cloudy
Hourly data recorded from LOWI, located miles away from Innsbruck, Austria







STORIES FROM OUR PARTNERS